RADUGA 20 [-]

Last updated on Tue Jun 27 2023 00:03:02 GMT+0000 (Coordinated Universal Time)

1 17611U 87028A 23176.77805186 -.00000153 00000+0 00000+0 0 9990 2 17611 14.8055 336.1954 0032273 144.6365 225.3745 0.95962235127861
UTC large
Height (km)
Speed (km/s)
/
Latitude / Longitude
Inclination (degrees)
Orbital Period (minutes)
Azimuth
Elevation
Range (km)
Doppler Factor

Next 0 passes for location: London (51.5072 / 0.1276)

Sorry there are no passes over London.
RADUGA 20 [-]